Location: Newark
(52.1031°N, 9.3600°E)
Time: 12:03:31
(UTC+00:00)

OTV 5 (USA 277) - Pass Details

Date: 30 October 2019
Orbit: 310 x 324 km, 54.5° (Epoch: 17 October)

Event Time Altitude Azimuth Distance (km) Brightness Sun altitude
Rises 17:32:49 0° 210° (SSW) 2,054 ? -14.9°
Reaches altitude 10° 17:35:02 10° 193° (SSW) 1,230 ? -15.3°
Enters shadow 17:36:39 19° 158° (SSE) 843 ? -15.5°
